TimeEDT,TemperatureF,Dew PointF,Humidity,Sea Level PressureIn,VisibilityMPH,Wind Direction,Wind SpeedMPH,Gust SpeedMPH,PrecipitationIn,Events,Conditions,WindDirDegrees,DateUTC
12:52 AM,37.0,30.9,79,30.02,10.0,East,3.5,-,N/A,,Clear,100,2013-03-10 05:52:00
1:52 AM,37.0,30.9,79,30.02,10.0,East,3.5,-,N/A,,Clear,100,2013-03-10 06:52:00
3:52 AM,39.9,30.9,70,29.99,10.0,ESE,3.5,-,N/A,,Clear,120,2013-03-10 07:52:00
4:52 AM,37.0,32.0,82,29.97,10.0,Calm,Calm,-,N/A,,Overcast,0,2013-03-10 08:52:00
5:52 AM,43.0,32.0,65,29.97,10.0,SSE,4.6,-,N/A,,Overcast,160,2013-03-10 09:52:00
6:52 AM,45.0,32.0,60,29.98,10.0,South,6.9,-,0.00,,Overcast,180,2013-03-10 10:52:00
7:52 AM,46.4,32.0,57,29.97,10.0,South,5.8,-,N/A,,Mostly Cloudy,170,2013-03-10 11:52:00
8:52 AM,48.0,33.1,56,29.99,10.0,South,10.4,19.6,N/A,,Mostly Cloudy,180,2013-03-10 12:52:00
9:52 AM,51.1,33.1,50,29.98,10.0,South,11.5,-,N/A,,Mostly Cloudy,190,2013-03-10 13:52:00
10:52 AM,55.9,34.0,44,29.96,10.0,South,11.5,23.0,N/A,,Clear,170,2013-03-10 14:52:00
11:52 AM,55.4,35.6,47,29.95,10.0,South,11.5,23.0,N/A,,Partly Cloudy,190,2013-03-10 15:52:00
12:52 PM,60.1,36.0,41,29.96,10.0,SSW,17.3,25.3,N/A,,Clear,200,2013-03-10 16:52:00
1:52 PM,61.0,36.0,39,29.93,10.0,SSW,20.7,27.6,N/A,,Clear,210,2013-03-10 17:52:00
2:52 PM,63.0,39.9,43,29.91,10.0,SSW,20.7,25.3,N/A,,Scattered Clouds,200,2013-03-10 18:52:00
3:52 PM,64.0,39.0,40,29.91,10.0,SW,16.1,23.0,N/A,,Mostly Cloudy,220,2013-03-10 19:52:00
4:52 PM,62.1,37.0,39,29.88,10.0,South,12.7,20.7,N/A,,Clear,170,2013-03-10 20:52:00
5:52 PM,62.1,36.0,38,29.88,10.0,South,13.8,-,N/A,,Clear,180,2013-03-10 21:52:00
6:52 PM,61.0,37.9,42,29.87,10.0,SSE,6.9,-,N/A,,Clear,150,2013-03-10 22:52:00
7:52 PM,57.9,39.0,49,29.85,10.0,SSE,6.9,-,N/A,,Clear,160,2013-03-10 23:52:00
8:52 PM,57.0,37.0,47,29.85,10.0,Variable,4.6,-,N/A,,Clear,0,2013-03-11 00:52:00
9:52 PM,57.0,36.0,45,29.83,10.0,SE,3.5,-,N/A,,Scattered Clouds,130,2013-03-11 01:52:00
10:52 PM,57.0,36.0,45,29.81,10.0,Variable,5.8,-,N/A,,Partly Cloudy,0,2013-03-11 02:52:00
11:52 PM,55.0,39.9,57,29.83,8.0,South,8.1,-,0.01,Rain,Light Rain,190,2013-03-11 03:52:00
12:52 AM,55.9,42.1,60,29.81,10.0,SSW,8.1,-,0.02,Rain,Light Rain,200,2013-03-11 04:52:00